Date String (YYYY-MM-DD hh:mm:ss) UTC,Instrument flags,absolute air pressure of the measurement (hPa),sample flow rate (lpm),inlet stack bypass flow (lpm),air temperature of the measurement (°C),ambient temperature measured by the external sensor (°C),aerosol sample conditioner tube jacket temperature (°C),OPC LED temperature (°C),internal box temperature (°C),relative humidity of the measurement (%),span deviation,mass concentration of particles derived from Lorenz-Mie calculation of OPC scattering (μg/m³),mass concentration of particles derived from Lorenz-Mie calculation of OPC scattering (μg/m³),mass concentration of particles derived from Lorenz-Mie calculation of OPC scattering (μg/m³)
DateTimeUTC,F1_M11,P_M11,Q1_M11,Q2_M11,T1_M11,T2_M11,T3_M11,T4_M11,T5_M11,U1_M11,ZSPAN_M11,X2_M11,X0_M11,X1_M11
2023-11-01 19:00:00,SystemResetWarning,0831.2,5.00,000.00,023.3,022.4,000.0,031.7,024.8,11.6,0000.0,0000.99,0001.61,0000.73
2023-11-01 19:01:00,SystemResetWarning,0831.2,5.00,000.00,023.3,022.5,000.0,031.7,024.8,11.7,0000.0,0000.91,0001.38,0000.68
2023-11-01 19:02:00,SystemResetWarning,0831.2,5.00,000.00,023.3,022.5,000.0,031.7,024.8,11.4,0000.0,0000.81,0001.13,0000.63
2023-11-01 19:03:00,SystemResetWarning,0831.2,5.00,000.00,023.3,022.5,000.0,031.7,024.8,11.5,0000.0,0000.76,0001.01,0000.59
2023-11-01 19:04:00,SystemResetWarning,0831.1,5.00,000.00,023.3,022.5,000.0,031.7,024.8,12.0,0000.0,0000.74,0001.01,0000.58
2023-11-01 19:05:00,SystemResetWarning,0831.1,4.99,000.00,023.3,022.5,000.0,031.7,024.8,12.2,0000.0,0000.76,0001.04,0000.57
2023-11-01 19:06:00,SystemResetWarning,0831.1,5.00,000.00,023.3,022.5,000.0,031.7,024.8,11.6,0000.0,0000.76,0001.04,0000.58
2023-11-01 19:07:00,SystemResetWarning,0831.1,5.00,000.00,023.3,022.5,000.0,031.7,024.8,11.3,0000.0,0000.79,0001.08,0000.61
2023-11-01 19:08:00,SystemResetWarning,0831.1,5.00,000.00,023.3,022.5,000.0,031.7,024.8,11.4,0000.0,0000.81,0001.12,0000.64
2023-11-01 19:09:00,SystemResetWarning,0831.2,5.00,000.00,023.3,022.5,000.0,031.7,024.8,11.4,0000.0,0000.81,0001.12,0000.65
2023-11-01 19:10:00,SystemResetWarning,0831.1,5.00,000.00,023.3,022.5,000.0,031.7,024.8,11.5,0000.0,0000.80,0001.09,0000.65
2023-11-01 19:11:00,SystemResetWarning,0831.1,5.00,000.00,023.3,022.5,000.0,031.7,024.8,11.8,0000.0,0000.78,0001.06,0000.65
2023-11-01 19:12:00,SystemResetWarning,0831.2,5.01,000.00,023.4,022.5,000.0,031.7,024.8,11.7,0000.0,0000.77,0001.05,0000.64
2023-11-01 19:13:00,SystemResetWarning,0831.1,5.00,000.00,023.4,022.5,000.0,031.7,024.8,11.9,0000.0,0000.81,0001.12,0000.67
2023-11-01 19:14:00,SystemResetWarning,0831.1,5.00,000.00,023.4,022.5,000.0,031.7,024.8,11.9,0000.0,0000.86,0001.18,0000.71
2023-11-01 19:15:00,SystemResetWarning,0831.0,5.00,000.00,023.4,022.5,000.0,031.7,024.8,11.1,0000.0,0000.90,0001.22,0000.73
2023-11-01 19:16:00,SystemResetWarning,0831.0,5.00,000.00,023.4,022.5,000.0,031.7,024.9,11.5,0000.0,0000.87,0001.15,0000.73
2023-11-01 19:17:00,SystemResetWarning,0831.0,5.00,000.00,023.4,022.5,000.0,031.7,024.9,11.5,0000.0,0000.85,0001.12,0000.72
2023-11-01 19:18:00,SystemResetWarning,0830.9,5.00,000.00,023.4,022.5,000.0,031.7,024.9,12.0,0000.0,0000.83,0001.08,0000.70
2023-11-01 19:19:00,SystemResetWarning,0830.9,5.00,000.00,023.4,022.6,000.0,031.7,024.9,11.7,0000.0,0000.87,0001.17,0000.72
2023-11-01 19:20:00,SystemResetWarning,0830.9,5.00,000.00,023.4,022.6,000.0,031.8,024.9,11.4,0000.0,0000.96,0001.31,0000.82
2023-11-01 19:21:00,SystemResetWarning,0830.9,5.00,000.00,023.4,022.6,000.0,031.8,024.9,11.2,0000.0,0001.08,0001.53,0000.91
2023-11-01 19:22:00,SystemResetWarning,0830.9,5.00,000.00,023.4,022.6,000.0,031.8,024.9,10.9,0000.0,0001.13,0001.57,0000.96
2023-11-01 19:23:00,SystemResetWarning,0830.9,5.00,000.00,023.4,022.6,000.0,031.8,024.9,11.1,0000.0,0001.24,0001.73,0001.05
2023-11-01 19:24:00,SystemResetWarning,0830.9,4.99,000.00,023.4,022.5,000.0,031.8,024.9,11.5,0000.0,0001.29,0001.78,0001.10
2023-11-01 19:25:00,SystemResetWarning,0830.9,5.00,000.00,023.4,022.5,000.0,031.8,024.9,15.8,0000.0,0001.30,0001.82,0001.11
2023-11-01 19:26:00,SystemResetWarning,0830.9,5.00,000.00,023.5,022.6,000.0,031.8,025.0,16.5,0000.0,0001.30,0001.82,0001.11
2023-11-01 19:27:00,SystemResetWarning,0830.9,5.01,000.00,023.5,022.6,000.0,031.8,025.0,16.7,0000.0,0001.37,0001.92,0001.17
2023-11-01 19:28:00,SystemResetWarning,0830.9,5.01,000.00,023.5,022.6,000.0,031.8,025.0,16.8,0000.0,0001.51,0002.39,0001.26
2023-11-01 19:29:00,SystemResetWarning,0830.9,5.00,000.00,023.5,022.7,000.0,031.8,025.0,17.0,0000.0,0001.63,0003.55,0001.34
2023-11-01 19:30:00,SystemResetWarning,0830.9,5.00,000.00,023.5,022.7,000.0,031.8,025.0,15.2,0000.0,0001.71,0004.07,0001.41
2023-11-01 19:31:00,SystemResetWarning,0830.9,5.00,000.00,023.5,022.7,000.0,031.8,025.0,14.6,0000.0,0001.75,0004.19,0001.43
2023-11-01 19:32:00,SystemResetWarning,0830.8,4.99,000.00,023.5,022.7,000.0,031.8,025.0,14.8,0000.0,0001.70,0004.09,0001.40
2023-11-01 19:33:00,SystemResetWarning,0830.8,4.99,000.00,023.5,022.8,000.0,031.8,025.0,15.2,0000.0,0001.80,0004.93,0001.44
2023-11-01 19:34:00,SystemResetWarning,0830.7,5.00,000.00,023.6,022.8,000.0,031.9,025.1,16.0,0000.0,0001.79,0005.65,0001.41
2023-11-01 19:35:00,SystemResetWarning,0830.7,5.00,000.00,023.6,022.8,000.0,031.9,025.1,15.9,0000.0,0001.73,0005.61,0001.35
2023-11-01 19:36:00,SystemResetWarning,0830.7,5.00,000.00,023.6,022.8,000.0,031.9,025.1,15.9,0000.0,0001.74,0005.67,0001.33
2023-11-01 19:37:00,SystemResetWarning,0830.7,5.00,000.00,023.6,022.8,000.0,031.9,025.1,14.7,0000.0,0001.72,0005.60,0001.31
2023-11-01 19:38:00,SystemResetWarning,0830.6,4.99,000.00,023.6,022.8,000.0,031.9,025.1,14.7,0000.0,0001.71,0005.57,0001.31
2023-11-01 19:39:00,SystemResetWarning,0830.6,5.00,000.00,023.6,022.8,000.0,031.9,025.1,14.2,0000.0,0001.61,0005.26,0001.24
2023-11-01 19:40:00,SystemResetWarning,0830.6,4.99,000.00,023.6,022.8,000.0,031.9,025.1,13.9,0000.0,0001.54,0004.92,0001.19
2023-11-01 19:41:00,SystemResetWarning,0830.6,5.00,000.00,023.7,022.9,000.0,031.9,025.1,13.4,0000.0,0001.47,0004.63,0001.13
2023-11-01 19:42:00,SystemResetWarning,0830.6,5.00,000.00,023.7,022.9,000.0,031.9,025.2,13.2,0000.0,0001.34,0004.38,0001.04
2023-11-01 19:43:00,SystemResetWarning,0830.5,5.01,000.00,023.7,022.9,000.0,032.0,025.2,14.1,0000.0,0001.27,0004.98,0000.97
2023-11-01 19:44:00,SystemResetWarning,0830.5,5.01,000.00,023.7,022.9,000.0,032.0,025.2,15.8,0000.0,0001.14,0004.14,0000.89
2023-11-01 19:45:00,SystemResetWarning,0830.5,5.00,000.00,023.7,022.9,000.0,032.0,025.2,15.8,0000.0,0001.08,0003.31,0000.86
2023-11-01 19:46:00,SystemResetWarning,0830.5,5.00,000.00,023.7,022.9,000.0,032.0,025.2,15.2,0000.0,0001.04,0003.23,0000.83
2023-11-01 19:47:00,SystemResetWarning,0830.5,5.00,000.00,023.7,022.9,000.0,032.0,025.2,14.7,0000.0,0000.98,0003.09,0000.81
2023-11-01 19:48:00,SystemResetWarning,0830.5,5.00,000.00,023.7,022.9,000.0,032.0,025.2,14.6,0000.0,0000.96,0003.08,0000.79
2023-11-01 19:49:00,SystemResetWarning,0830.7,5.00,000.00,023.7,022.9,000.0,032.0,025.2,13.9,0000.0,0000.93,0003.05,0000.76
2023-11-01 19:50:00,SystemResetWarning,0830.7,5.00,000.00,023.8,022.9,000.0,032.0,025.2,12.6,0000.0,0000.91,0003.02,0000.74
2023-11-01 19:51:00,SystemResetWarning,0830.5,5.00,000.00,023.8,023.0,000.0,032.0,025.2,11.7,0000.0,0000.85,0002.57,0000.71
2023-11-01 19:52:00,SystemResetWarning,0830.4,5.00,000.00,023.8,023.0,000.0,032.1,025.3,13.6,0000.0,0000.81,0002.26,0000.68
2023-11-01 19:53:00,SystemResetWarning,0830.5,5.00,000.00,023.8,023.0,000.0,032.1,025.3,15.3,0000.0,0000.80,0002.92,0000.67
2023-11-01 19:54:00,SystemResetWarning,0830.4,5.00,000.00,023.8,023.0,000.0,032.1,025.3,14.7,0000.0,0000.77,0002.37,0000.66
2023-11-01 19:55:00,SystemResetWarning,0830.5,5.01,000.00,023.8,023.0,000.0,032.1,025.3,14.9,0000.0,0000.75,0002.09,0000.64
2023-11-01 19:56:00,SystemResetWarning,0830.5,5.01,000.00,023.8,023.1,000.0,032.1,025.3,15.5,0000.0,0000.72,0002.04,0000.63
2023-11-01 19:57:00,SystemResetWarning,0830.4,4.99,000.00,023.9,023.1,000.0,032.1,025.4,15.3,0000.0,0000.72,0002.04,0000.62
2023-11-01 19:58:00,SystemResetWarning,0830.4,4.99,000.00,023.9,023.1,000.0,032.1,025.4,14.5,0000.0,0000.72,0002.05,0000.61
2023-11-01 19:59:00,SystemResetWarning,0830.4,5.00,000.00,023.9,023.1,000.0,032.2,025.4,13.5,0000.0,0000.70,0002.02,0000.59
